Location: Little Chesterford
(52.0500°N, 0.1833°E)
Time: 19:03:57
(UTC+00:00)

Okean O Rocket - Pass Details

Date: 26 September 2023
Orbit: 619 x 641 km, 98.1° (Epoch: 08 December)

Event Time Altitude Azimuth Distance (km) Brightness Sun altitude
Exits shadow 18:52:29 - 144° (SE) 2,349 4.1 -10.5°
Reaches altitude 10° 18:53:18 10° 141° (SE) 2,024 3.7 -10.7°
Maximum altitude 18:57:32 47° 68° (ENE) 852 1.9 -11.3°
Drops below altitude 10° 19:01:49 10° 355° (N) 2,048 4.5 -11.9°
Sets 19:04:05 0° 350° (N) 2,964 5.4 -12.3°
